{"data":{"norad_id":43277,"intl_designator":"2018-034C","name":"YAOGAN-31 01C","alt_names":[],"object_type":"PAYLOAD","status":"ACTIVE","operator":null,"country":"PRC","launch_date":"2018-04-10","launch_site_code":"JSC","launch_vehicle":null,"mission":null,"orbit_class":"UNKNOWN","rcs_meters":null,"size_class":null,"mass_kg":null,"dimensions":null,"purposes":[],"wikipedia_slug":null,"has_3d_model":false,"image_url":null,"decayed_at":null,"tle_current":{"epoch":"2026-09-20T04:51:36.737856Z","epoch_age_seconds":77351,"freshness":"FRESH","line1":"1 43277U 18034C   26263.20250854  .00000010  00000+0  13307-3 0  9991","line2":"2 43277  63.3944 206.1655 0283934   7.4135 353.0956 13.45450557415020","mean_motion":13.45450557,"eccentricity":0.0283934,"inclination_deg":63.3944,"raan_deg":206.1655,"arg_perigee_deg":7.4135,"mean_anomaly_deg":353.0956,"bstar":0.00013307,"rev_number":41502,"period_min":107.02734429802,"perigee_km":877.02535888973,"apogee_km":1301.0626738295,"semimajor_km":7467.1810163596,"source":"CELESTRAK","updated_at":"2026-09-20T09:00:14.318887Z"}}}